SCP
0 0 0 0 0 0 0 0 0 0 0 0 0 0 0 0 0 0 0 0 0 0 0 0 0 0 1 2 2 2 2 2 1 1 1 1 1 1 2 2 2 1 1
0 0 0 0 0 0 0 0 0 0 0 0 0 0 0 0 0 0 0 0 0 0 0 0 0 0 0 1 2 2 2 1 1 1 1 1 1 1 1 1 2 2 1
0 0 0 0 0 0 0 0 0 0 0 0 0 0 0 0 0 0 0 0 0 0 0 0 0 0 0 0 1 1 2 2 2 1 2 1 1 1 1 1 1 2 1
0 0 0 0 0 0 0 0 0 0 0 0 0 0 0 0 0 0 0 0 0 0 0 0 0 0 0 0 1 1 1 2 2 2 1 1 1 1 1 1 1 1 1
0 0 0 0 0 0 0 0 0 0 0 0 0 0 0 0 0 0 0 0 0 0 0 0 0 0 0 0 0 1 1 1 2 2 1 2 1 1 1 1 1 1 1
0 0 0 0 0 0 0 0 0 0 0 0 0 0 0 0 0 0 0 0 0 0 0 0 0 0 0 0 0 0 1 1 1 1 1 1 1 1 1 1 1 1 1
0 0 0 0 0 0 0 0 1 0 0 0 0 0 0 0 0 0 0 0 0 0 0 0 0 0 0 0 0 0 0 0 1 1 1 1 1 1 1 1 1 1 1
0 0 0 0 0 0 1 0 0 1 1 0 0 0 0 0 0 0 0 0 0 0 0 0 0 0 0 0 0 0 0 0 0 1 1 1 1 1 1 1 1 1 1
0 0 0 0 0 0 0 0 0 0 0 0 0 0 0 0 0 0 0 0 0 0 0 0 0 0 0 0 0 0 0 0 0 0 1 1 1 1 1 1 1 1 1
0 0 0 0 0 0 0 0 0 0 0 1 1 1 0 0 0 0 0 0 0 -0 1 0 0 0 0 0 0 0 0 0 0 0 1 1 0 0 1 1 1 1 1
0 0 0 0 0 0 0 0 0 0 0 1 1 1 1 1 1 0 0 0 1 0 0 0 0 0 0 0 0 0 0 0 0 0 0 0 1 0 0 1 1 1 1
0 0 0 0 0 0 0 0 0 0 0 0 0 1 1 1 1 1 0 0 0 0 0 0 1 0 0 0 0 0 0 0 0 0 0 0 1 0 0 1 1 1 1
0 0 1 1 0 0 0 0 0 0 0 0 0 1 1 0 0 1 1 0 0 0 0 0 0 1 1 0 0 0 0 0 0 0 0 0 0 0 0 1 1 1 1
0 1 1 1 0 0 0 0 0 0 0 0 0 0 0 0 1 0 0 0 0 0 0 0 0 0 0 0 1 0 0 0 0 0 0 0 0 0 1 1 0 0 1
0 1 0 0 0 0 0 0 0 0 0 0 0 0 0 0 0 0 0 0 0 0 0 0 0 0 0 0 0 0 0 0 0 0 0 0 0 0 0 0 0 0 0
0 0 0 0 0 0 0 0 0 0 0 0 0 0 0 0 0 0 0 0 0 0 0 0 0 0 0 0 0 0 0 0 0 0 0 0 0 0 0 0 0 0 0
0 0 0 0 0 0 0 0 0 0 -0 0 0 0 0 0 0 0 0 0 0 0 0 0 0 0 0 0 0 0 0 0 0 0 0 0 0 0 0 0 0 0 0
0 0 0 0 0 0 -0 -0 0 0 -0 0 -0 -0 -0 0 0 0 0 0 0 0 0 0 0 0 0 0 0 0 0 0 0 0 0 0 0 0 0 0 0 0 0
0 0 0 0 0 0 -0 0 -0 -0 0 -0 0 -0 -0 0 -0 0 0 0 0 0 0 0 0 0 0 0 0 0 0 0 0 0 0 0 0 0 0 0 0 0 0
0 0 0 0 0 0 0 0 -0 -0 0 0 0 0 0 0 0 0 0 0 0 0 0 0 0 0 0 0 0 0 0 0 0 0 0 0 0 0 0 0 0 0 0
0 0 0 0 0 0 0 0 0 0 0 0 0 -0 -0 -0 0 0 0 0 0 0 -0 -0 -0 -0 0 0 0 0 0 0 0 0 0 0 0 0 0 0 0 0 0
0 0 0 0 0 0 0 0 0 0 0 0 0 0 0 -0 0 0 0 0 -0 0 0 -0 -0 -0 -0 0 0 0 0 0 0 0 -0 0 0 0 0 0 0 0 0
0 -0 0 0 0 0 0 0 0 0 0 0 0 0 0 0 0 0 0 0 0 -0 -0 -0 0 0 0 0 0 0 0 0 0 0 0 0 0 0 0 0 0 0 0
0 -0 -0 0 0 0 0 0 0 0 0 0 0 0 0 0 0 -0 0 0 0 0 0 0 0 0 -0 -0 0 0 0 0 0 0 0 0 0 0 0 0 0 0 0
-0 -0 -0 0 0 0 -0 0 0 0 0 0 0 0 -0 -0 -0 -0 0 0 0 -0 -0 -0 -0 -0 -0 -0 -0 0 0 0 0 0 0 0 0 0 0 0 0 0 -0
0 0 0 0 -0 -0 -0 0 0 0 0 0 0 0 -0 -0 -0 0 0 0 0 -0 0 0 0 -0 -0 -0 0 -0 -0 0 0 0 0 0 0 0 0 0 0 -0 0
Wind_Speed_500mb
18 18 20 21 22 20 23 23 24 24 23 23 23 24 25 26 28 28 30 35 50 51 43 41 38 36 37 42 45 46 49 51 52 51 49 50 48 51 50 47 45 47 43
21 25 23 25 27 26 25 25 26 27 23 23 24 25 26 28 30 32 33 34 40 49 42 41 43 40 35 35 42 47 49 52 53 53 51 52 51 51 50 49 46 42 41
28 27 28 31 31 29 28 30 26 28 27 27 28 29 29 31 31 32 34 33 33 41 40 39 37 47 41 36 36 41 47 51 54 52 51 52 52 53 54 54 53 51 51
35 29 32 31 32 34 32 34 33 31 31 31 31 32 33 33 33 34 34 32 30 30 34 36 35 31 48 44 41 37 36 45 49 52 51 50 50 54 54 53 55 50 48
29 32 35 35 38 39 35 39 40 36 36 37 36 37 37 38 37 36 34 32 33 32 30 31 38 40 39 49 48 44 40 41 40 50 53 52 52 56 56 54 53 52 51
32 33 36 37 40 37 41 39 46 43 41 42 42 43 39 39 37 32 33 32 32 28 28 28 28 31 32 30 45 48 46 43 42 41 45 52 54 55 57 56 55 55 54
30 32 32 38 39 38 38 42 44 50 47 44 45 40 36 40 38 36 29 29 27 26 29 26 25 26 29 28 24 33 48 48 44 43 43 44 45 53 55 56 58 57 54
27 26 26 30 34 38 42 48 51 54 50 43 47 43 41 38 34 29 21 27 27 27 28 29 26 26 31 19 22 25 31 46 48 44 48 45 45 46 48 53 56 58 59
27 26 27 29 33 38 41 46 48 55 54 52 47 37 21 34 17 26 27 29 31 33 35 32 30 31 28 31 33 32 37 41 46 47 47 51 49 48 48 51 50 50 50
29 28 28 37 37 39 46 44 45 47 50 54 50 43 45 41 38 33 27 25 38 33 34 36 35 32 34 35 35 36 37 39 40 48 48 49 48 50 52 51 50 50 49
30 33 29 42 50 42 51 50 51 50 46 47 52 51 45 42 43 34 37 34 26 33 36 42 34 36 37 35 36 39 40 46 53 49 50 51 52 49 51 51 51 48 50
41 46 28 30 53 52 50 47 44 48 44 44 53 50 48 38 32 34 38 37 36 34 35 34 39 36 38 42 39 41 45 45 48 58 60 57 55 51 48 48 49 51 53
47 51 57 64 51 51 51 47 47 49 45 46 46 51 49 42 36 39 35 35 33 36 40 38 39 41 45 45 40 39 39 39 41 44 55 64 62 58 51 49 48 46 48
48 51 64 54 55 55 54 51 52 43 48 44 45 50 48 40 41 41 42 35 34 38 34 39 34 35 31 38 41 44 39 37 32 37 44 59 62 60 53 51 48 45 44
50 53 62 60 51 46 49 50 50 46 47 46 44 40 42 44 45 37 37 39 38 31 35 31 30 33 20 29 35 34 34 33 43 41 38 52 59 57 53 49 45 46 49
51 53 52 48 47 43 47 50 47 43 46 47 45 38 38 36 36 36 37 35 34 36 41 37 27 37 32 38 33 42 44 43 48 43 39 45 53 55 52 47 45 44 46
49 47 47 45 47 45 48 49 53 50 45 49 41 38 38 37 31 30 33 34 39 38 39 38 34 32 40 35 33 35 42 43 35 42 38 46 49 52 49 44 43 41 44
44 45 46 48 48 43 49 51 51 45 41 40 37 45 38 34 31 32 37 37 34 38 37 48 42 45 37 31 38 42 39 31 36 44 37 46 48 48 42 41 39 39 42
45 47 46 49 42 48 47 53 46 41 39 34 38 39 37 38 32 33 29 29 33 39 44 47 46 33 34 34 36 32 26 23 24 27 38 39 44 42 39 35 35 34 31
43 45 48 42 45 44 45 46 34 31 28 32 30 34 32 31 29 23 23 25 24 32 32 29 33 40 41 24 24 17 14 18 27 33 37 37 38 33 30 24 19 16 12
47 45 46 45 44 43 47 32 34 24 23 21 20 20 18 23 22 20 16 22 33 39 32 33 35 23 19 18 14 14 13 28 31 30 40 33 37 33 25 21 19 9 14
46 41 44 42 38 43 35 31 27 19 19 13 17 19 21 21 20 19 22 30 36 37 34 29 27 20 16 14 13 15 26 33 32 34 37 35 39 33 29 31 23 22 19
43 41 38 39 32 28 22 26 21 19 15 13 19 18 14 12 9 8 24 23 13 7 4 7 8 5 5 9 15 27 24 25 25 25 37 37 35 35 34 31 36 36 35
44 40 39 34 28 20 18 27 25 19 14 10 14 14 11 11 4 10 0 8 9 9 13 10 7 15 15 15 29 24 22 27 33 34 35 41 26 26 24 38 41 36 35
43 36 35 29 13 26 33 9 23 18 12 10 12 15 15 9 12 6 11 9 16 12 17 15 22 27 32 31 29 31 35 33 34 33 39 55 53 49 45 42 39 41 36
35 29 27 23 22 30 20 26 15 17 13 16 25 19 13 9 11 8 9 17 24 29 31 37 41 50 55 50 39 37 30 29 41 63 50 42 48 58 42 38 39 36 35
Wind_Direction_500mb
290 301 295 303 297 300 303 299 300 298 297 293 288 283 280 282 281 280 275 272 283 285 279 256 250 249 250 246 241 240 236 235 234 235 236 233 228 227 225 219 215 221 223
287 287 294 296 291 287 287 286 291 291 294 290 284 282 282 283 282 279 277 277 276 280 292 272 253 247 245 247 244 239 235 233 234 234 236 235 229 227 223 221 217 215 219
289 278 290 290 281 274 275 288 288 290 291 288 284 283 284 285 286 281 280 279 278 284 286 291 274 250 242 239 246 241 236 233 233 235 233 232 230 229 227 227 225 225 225
288 299 296 291 282 274 278 274 274 279 282 281 282 281 280 280 282 283 280 275 274 272 281 281 285 277 249 240 240 246 241 236 234 234 232 231 230 229 228 227 229 227 228
299 291 294 291 284 270 270 269 266 268 275 278 279 281 281 279 279 281 275 269 269 269 268 272 278 276 275 248 240 241 244 242 234 233 233 231 231 229 229 227 227 226 225
297 297 295 294 291 275 272 267 267 263 272 275 277 281 283 279 276 274 274 268 268 260 259 265 270 274 283 266 246 242 242 245 241 236 233 233 231 229 229 228 228 229 229
296 296 297 290 291 287 280 271 273 273 271 265 271 271 280 274 270 269 267 260 258 250 252 258 261 261 268 264 259 256 245 239 245 243 238 235 232 230 230 229 227 228 227
308 303 299 297 295 293 292 289 286 273 268 264 269 275 277 280 268 239 254 255 253 251 246 258 254 253 237 250 261 263 248 242 238 241 243 238 234 231 228 230 230 229 229
300 300 298 298 300 299 292 287 283 283 274 267 260 260 269 270 264 266 262 254 251 251 247 240 245 265 262 257 250 255 261 253 245 239 240 244 238 235 234 232 231 232 230
278 285 287 295 293 300 291 288 287 278 278 267 265 254 257 263 281 281 263 244 255 246 252 250 258 254 259 261 259 249 235 252 243 237 237 241 240 234 234 234 234 234 234
289 295 277 295 300 310 295 282 279 281 277 265 261 258 254 253 253 257 267 259 252 265 257 249 248 255 251 256 260 262 259 249 248 245 238 234 238 238 235 234 234 235 235
301 300 288 293 295 301 295 287 286 284 286 268 259 257 248 249 250 253 251 258 268 264 267 262 246 251 253 256 264 263 260 255 254 245 238 233 234 238 236 234 233 234 236
295 293 295 297 294 297 292 284 284 282 281 277 263 253 250 252 254 258 251 255 261 268 272 285 245 259 254 252 250 255 261 264 260 256 242 231 230 233 236 232 232 236 238
291 287 294 295 296 291 286 287 281 286 281 280 268 255 249 239 250 251 255 253 258 265 271 275 261 262 246 261 242 247 252 276 271 264 256 231 226 227 229 233 236 237 241
293 292 291 292 288 284 285 289 291 283 282 281 269 251 258 252 246 247 256 249 248 259 267 267 269 264 252 242 234 244 250 264 268 263 255 230 219 221 223 228 233 237 243
297 295 294 287 283 284 285 286 285 285 280 280 265 256 247 247 251 251 251 253 254 255 270 278 267 265 258 259 252 251 254 253 255 257 250 225 216 216 218 224 230 240 242
300 297 294 292 288 289 290 287 281 283 273 272 260 249 246 247 250 242 244 246 252 259 260 268 267 272 273 274 265 261 256 255 250 258 246 214 210 210 214 221 231 245 239
301 299 293 289 287 288 286 285 286 281 273 268 255 251 247 245 248 252 254 261 258 264 266 260 259 265 274 261 273 275 259 248 243 240 229 203 201 206 213 224 238 245 241
299 292 288 285 290 290 288 289 284 277 270 259 256 250 247 244 245 252 257 259 266 271 274 271 271 266 269 289 278 259 253 253 211 206 190 195 197 203 213 223 241 243 244
304 303 306 298 289 288 286 289 284 279 268 260 249 237 235 235 241 248 249 265 279 280 282 271 271 274 284 273 262 246 228 202 185 180 183 193 194 194 206 216 216 211 206
296 298 297 294 288 286 290 278 289 277 275 254 231 217 230 246 239 241 262 280 291 286 271 268 272 287 264 254 230 204 184 160 167 167 182 180 181 177 173 175 166 153 120
298 298 297 294 290 287 296 282 284 273 280 251 223 217 234 247 239 256 273 294 297 292 261 259 255 257 257 242 216 187 166 154 155 176 173 170 178 172 172 171 155 137 131
313 304 300 298 290 301 306 280 269 265 250 276 212 206 225 186 226 274 304 302 296 299 226 192 229 202 234 205 166 165 155 161 152 137 154 145 161 156 167 161 153 142 123
321 319 316 309 305 312 339 300 270 256 245 209 210 211 185 157 186 349 259 2 50 95 127 110 100 105 93 94 148 145 158 156 153 140 146 138 157 144 175 148 159 148 153
330 326 328 316 324 340 331 266 288 222 202 198 168 139 135 149 353 148 10 87 95 109 108 110 96 110 88 103 125 119 111 121 133 138 132 125 130 127 154 137 158 162 149
331 338 342 359 350 344 341 308 184 163 205 156 138 144 140 100 45 103 76 61 99 111 117 116 109 105 95 95 112 76 90 123 134 126 135 125 131 128 132 149 155 159 168
Wind_Speed_850mb
18 18 20 21 22 20 23 23 24 24 23 23 23 24 25 26 28 28 30 35 50 51 43 41 38 36 37 42 45 46 49 51 52 51 49 50 48 51 50 47 45 47 43
21 25 23 25 27 26 25 25 26 27 23 23 24 25 26 28 30 32 33 34 40 49 42 41 43 40 35 35 42 47 49 52 53 53 51 52 51 51 50 49 46 42 41
28 27 28 31 31 29 28 30 26 28 27 27 28 29 29 31 31 32 34 33 33 41 40 39 37 47 41 36 36 41 47 51 54 52 51 52 52 53 54 54 53 51 51
35 29 32 31 32 34 32 34 33 31 31 31 31 32 33 33 33 34 34 32 30 30 34 36 35 31 48 44 41 37 36 45 49 52 51 50 50 54 54 53 55 50 48
29 32 35 35 38 39 35 39 40 36 36 37 36 37 37 38 37 36 34 32 33 32 30 31 38 40 39 49 48 44 40 41 40 50 53 52 52 56 56 54 53 52 51
32 33 36 37 40 37 41 39 46 43 41 42 42 43 39 39 37 32 33 32 32 28 28 28 28 31 32 30 45 48 46 43 42 41 45 52 54 55 57 56 55 55 54
30 32 32 38 39 38 38 42 44 50 47 44 45 40 36 40 38 36 29 29 27 26 29 26 25 26 29 28 24 33 48 48 44 43 43 44 45 53 55 56 58 57 54
27 26 26 30 34 38 42 48 51 54 50 43 47 43 41 38 34 29 21 27 27 27 28 29 26 26 31 19 22 25 31 46 48 44 48 45 45 46 48 53 56 58 59
27 26 27 29 33 38 41 46 48 55 54 52 47 37 21 34 17 26 27 29 31 33 35 32 30 31 28 31 33 32 37 41 46 47 47 51 49 48 48 51 50 50 50
29 28 28 37 37 39 46 44 45 47 50 54 50 43 45 41 38 33 27 25 38 33 34 36 35 32 34 35 35 36 37 39 40 48 48 49 48 50 52 51 50 50 49
30 33 29 42 50 42 51 50 51 50 46 47 52 51 45 42 43 34 37 34 26 33 36 42 34 36 37 35 36 39 40 46 53 49 50 51 52 49 51 51 51 48 50
41 46 28 30 53 52 50 47 44 48 44 44 53 50 48 38 32 34 38 37 36 34 35 34 39 36 38 42 39 41 45 45 48 58 60 57 55 51 48 48 49 51 53
47 51 57 64 51 51 51 47 47 49 45 46 46 51 49 42 36 39 35 35 33 36 40 38 39 41 45 45 40 39 39 39 41 44 55 64 62 58 51 49 48 46 48
48 51 64 54 55 55 54 51 52 43 48 44 45 50 48 40 41 41 42 35 34 38 34 39 34 35 31 38 41 44 39 37 32 37 44 59 62 60 53 51 48 45 44
50 53 62 60 51 46 49 50 50 46 47 46 44 40 42 44 45 37 37 39 38 31 35 31 30 33 20 29 35 34 34 33 43 41 38 52 59 57 53 49 45 46 49
51 53 52 48 47 43 47 50 47 43 46 47 45 38 38 36 36 36 37 35 34 36 41 37 27 37 32 38 33 42 44 43 48 43 39 45 53 55 52 47 45 44 46
49 47 47 45 47 45 48 49 53 50 45 49 41 38 38 37 31 30 33 34 39 38 39 38 34 32 40 35 33 35 42 43 35 42 38 46 49 52 49 44 43 41 44
44 45 46 48 48 43 49 51 51 45 41 40 37 45 38 34 31 32 37 37 34 38 37 48 42 45 37 31 38 42 39 31 36 44 37 46 48 48 42 41 39 39 42
45 47 46 49 42 48 47 53 46 41 39 34 38 39 37 38 32 33 29 29 33 39 44 47 46 33 34 34 36 32 26 23 24 27 38 39 44 42 39 35 35 34 31
43 45 48 42 45 44 45 46 34 31 28 32 30 34 32 31 29 23 23 25 24 32 32 29 33 40 41 24 24 17 14 18 27 33 37 37 38 33 30 24 19 16 12
47 45 46 45 44 43 47 32 34 24 23 21 20 20 18 23 22 20 16 22 33 39 32 33 35 23 19 18 14 14 13 28 31 30 40 33 37 33 25 21 19 9 14
46 41 44 42 38 43 35 31 27 19 19 13 17 19 21 21 20 19 22 30 36 37 34 29 27 20 16 14 13 15 26 33 32 34 37 35 39 33 29 31 23 22 19
43 41 38 39 32 28 22 26 21 19 15 13 19 18 14 12 9 8 24 23 13 7 4 7 8 5 5 9 15 27 24 25 25 25 37 37 35 35 34 31 36 36 35
44 40 39 34 28 20 18 27 25 19 14 10 14 14 11 11 4 10 0 8 9 9 13 10 7 15 15 15 29 24 22 27 33 34 35 41 26 26 24 38 41 36 35
43 36 35 29 13 26 33 9 23 18 12 10 12 15 15 9 12 6 11 9 16 12 17 15 22 27 32 31 29 31 35 33 34 33 39 55 53 49 45 42 39 41 36
35 29 27 23 22 30 20 26 15 17 13 16 25 19 13 9 11 8 9 17 24 29 31 37 41 50 55 50 39 37 30 29 41 63 50 42 48 58 42 38 39 36 35
Wind_Direction_850mb
290 301 295 303 297 300 303 299 300 298 297 293 288 283 280 282 281 280 275 272 283 285 279 256 250 249 250 246 241 240 236 235 234 235 236 233 228 227 225 219 215 221 223
287 287 294 296 291 287 287 286 291 291 294 290 284 282 282 283 282 279 277 277 276 280 292 272 253 247 245 247 244 239 235 233 234 234 236 235 229 227 223 221 217 215 219
289 278 290 290 281 274 275 288 288 290 291 288 284 283 284 285 286 281 280 279 278 284 286 291 274 250 242 239 246 241 236 233 233 235 233 232 230 229 227 227 225 225 225
288 299 296 291 282 274 278 274 274 279 282 281 282 281 280 280 282 283 280 275 274 272 281 281 285 277 249 240 240 246 241 236 234 234 232 231 230 229 228 227 229 227 228
299 291 294 291 284 270 270 269 266 268 275 278 279 281 281 279 279 281 275 269 269 269 268 272 278 276 275 248 240 241 244 242 234 233 233 231 231 229 229 227 227 226 225
297 297 295 294 291 275 272 267 267 263 272 275 277 281 283 279 276 274 274 268 268 260 259 265 270 274 283 266 246 242 242 245 241 236 233 233 231 229 229 228 228 229 229
296 296 297 290 291 287 280 271 273 273 271 265 271 271 280 274 270 269 267 260 258 250 252 258 261 261 268 264 259 256 245 239 245 243 238 235 232 230 230 229 227 228 227
308 303 299 297 295 293 292 289 286 273 268 264 269 275 277 280 268 239 254 255 253 251 246 258 254 253 237 250 261 263 248 242 238 241 243 238 234 231 228 230 230 229 229
300 300 298 298 300 299 292 287 283 283 274 267 260 260 269 270 264 266 262 254 251 251 247 240 245 265 262 257 250 255 261 253 245 239 240 244 238 235 234 232 231 232 230
278 285 287 295 293 300 291 288 287 278 278 267 265 254 257 263 281 281 263 244 255 246 252 250 258 254 259 261 259 249 235 252 243 237 237 241 240 234 234 234 234 234 234
289 295 277 295 300 310 295 282 279 281 277 265 261 258 254 253 253 257 267 259 252 265 257 249 248 255 251 256 260 262 259 249 248 245 238 234 238 238 235 234 234 235 235
301 300 288 293 295 301 295 287 286 284 286 268 259 257 248 249 250 253 251 258 268 264 267 262 246 251 253 256 264 263 260 255 254 245 238 233 234 238 236 234 233 234 236
295 293 295 297 294 297 292 284 284 282 281 277 263 253 250 252 254 258 251 255 261 268 272 285 245 259 254 252 250 255 261 264 260 256 242 231 230 233 236 232 232 236 238
291 287 294 295 296 291 286 287 281 286 281 280 268 255 249 239 250 251 255 253 258 265 271 275 261 262 246 261 242 247 252 276 271 264 256 231 226 227 229 233 236 237 241
293 292 291 292 288 284 285 289 291 283 282 281 269 251 258 252 246 247 256 249 248 259 267 267 269 264 252 242 234 244 250 264 268 263 255 230 219 221 223 228 233 237 243
297 295 294 287 283 284 285 286 285 285 280 280 265 256 247 247 251 251 251 253 254 255 270 278 267 265 258 259 252 251 254 253 255 257 250 225 216 216 218 224 230 240 242
300 297 294 292 288 289 290 287 281 283 273 272 260 249 246 247 250 242 244 246 252 259 260 268 267 272 273 274 265 261 256 255 250 258 246 214 210 210 214 221 231 245 239
301 299 293 289 287 288 286 285 286 281 273 268 255 251 247 245 248 252 254 261 258 264 266 260 259 265 274 261 273 275 259 248 243 240 229 203 201 206 213 224 238 245 241
299 292 288 285 290 290 288 289 284 277 270 259 256 250 247 244 245 252 257 259 266 271 274 271 271 266 269 289 278 259 253 253 211 206 190 195 197 203 213 223 241 243 244
304 303 306 298 289 288 286 289 284 279 268 260 249 237 235 235 241 248 249 265 279 280 282 271 271 274 284 273 262 246 228 202 185 180 183 193 194 194 206 216 216 211 206
296 298 297 294 288 286 290 278 289 277 275 254 231 217 230 246 239 241 262 280 291 286 271 268 272 287 264 254 230 204 184 160 167 167 182 180 181 177 173 175 166 153 120
298 298 297 294 290 287 296 282 284 273 280 251 223 217 234 247 239 256 273 294 297 292 261 259 255 257 257 242 216 187 166 154 155 176 173 170 178 172 172 171 155 137 131
313 304 300 298 290 301 306 280 269 265 250 276 212 206 225 186 226 274 304 302 296 299 226 192 229 202 234 205 166 165 155 161 152 137 154 145 161 156 167 161 153 142 123
321 319 316 309 305 312 339 300 270 256 245 209 210 211 185 157 186 349 259 2 50 95 127 110 100 105 93 94 148 145 158 156 153 140 146 138 157 144 175 148 159 148 153
330 326 328 316 324 340 331 266 288 222 202 198 168 139 135 149 353 148 10 87 95 109 108 110 96 110 88 103 125 119 111 121 133 138 132 125 130 127 154 137 158 162 149
331 338 342 359 350 344 341 308 184 163 205 156 138 144 140 100 45 103 76 61 99 111 117 116 109 105 95 95 112 76 90 123 134 126 135 125 131 128 132 149 155 159 168